User: anonymous   Login
Location: Unspecified
(0.0000°N, 0.0000°E)
Time: 21:34:28
(UTC+00:00)
Language:

ARGOS - Orbit

View from above orbital plane
View from above orbital plane
View from above satellite
View from above satellite

Ground track
Ground track

The orbit data is extracted from the following two-line orbital elements,

1 25634U 99008A   18265.79004800 -.00000018 +00000-0 +11609-4 0  9997
2 25634 098.5570 319.5034 0009357 316.7994 043.2448 14.19339515014083
Epoch (UTC): 22 September 2018 18:57:40
Eccentricity: 0.0009357
inclination: 98.5570°
perigee height: 821 km
apogee height: 834 km
right ascension of ascending node: 319.5034°
argument of perigee: 316.7994°
revolutions per day: 14.19339515
mean anomaly at epoch: 43.2448°
orbit number at epoch: 1408

The dashed part of the orbit path shows where the satellite is in the earth's shadow,  

DLR